Theta_e
281 282 283 283 283 283 283 284 284 285 285 284 284 285 285 287 289 292 294 295 296 297 298 298 297 297 297 302 312 317 313 328 331 314 307 305 322 324 325 327 326 325 324
279 281 282 282 282 281 282 282 283 284 284 285 285 285 285 286 287 289 290 292 295 296 297 296 296 296 296 299 306 315 315 317 325 320 314 302 305 306 309 323 323 322 322
279 281 280 280 279 279 279 281 282 282 283 284 285 285 285 285 285 286 287 289 292 294 296 296 297 297 298 299 301 309 317 313 312 309 307 300 301 302 301 307 317 319 319
281 280 280 279 278 279 279 280 281 281 283 283 283 282 282 282 284 285 287 288 291 293 294 295 295 295 297 299 302 306 309 316 314 304 303 303 302 301 298 300 301 312 316
278 277 277 278 279 279 278 279 279 280 281 281 282 281 281 283 284 285 285 286 288 291 292 294 294 294 295 295 297 299 312 317 316 308 300 300 300 301 301 299 298 301 302
277 277 278 278 277 277 277 277 277 278 279 280 280 280 280 281 281 282 283 284 287 288 290 292 293 295 295 294 296 300 308 316 318 310 304 303 302 300 301 301 299 301 297
276 275 275 275 275 275 275 276 276 276 277 277 278 278 279 279 279 280 281 282 283 286 289 292 293 294 295 295 295 297 304 315 313 308 308 308 307 304 302 304 297 293 294
275 274 274 274 274 275 275 275 274 274 276 276 276 277 277 278 278 279 280 281 283 285 287 290 292 293 295 296 296 298 302 315 313 311 312 312 311 309 306 304 298 292 290
273 272 273 273 273 273 273 273 273 274 274 275 275 276 276 276 276 278 280 281 282 284 286 288 291 292 293 295 297 301 306 313 314 312 312 310 308 309 310 307 306 303 291
273 272 272 272 272 272 272 273 273 273 273 274 274 275 275 276 276 277 277 279 281 283 285 286 288 290 292 293 293 294 300 311 314 311 310 308 308 309 307 307 309 308 304
269 269 270 271 270 270 270 271 272 272 272 273 273 274 274 275 275 276 276 278 280 282 283 285 286 288 289 291 292 293 298 309 311 307 307 307 308 308 308 307 309 308 307
266 266 268 269 269 269 270 270 271 271 272 273 273 273 274 274 274 275 276 278 278 281 282 284 286 287 289 291 292 292 299 307 307 306 306 304 306 307 307 306 306 307 306
266 267 268 268 268 269 269 270 270 270 271 271 272 272 272 273 273 274 276 277 278 279 281 284 285 287 288 290 291 298 302 305 307 305 305 302 304 303 304 304 304 303 298
264 268 268 268 269 269 269 269 270 270 270 270 271 271 272 273 273 274 275 275 277 278 280 282 285 287 288 290 290 294 300 304 303 303 304 302 303 303 303 301 301 298 293
266 267 267 267 268 268 269 269 270 270 270 270 270 270 271 273 273 273 275 276 277 278 280 281 283 287 289 291 290 293 298 301 300 300 301 301 301 298 301 301 300 297 294
265 266 267 267 268 268 268 269 269 269 270 270 270 272 274 275 275 274 274 276 277 278 280 282 284 286 290 292 292 294 296 296 297 296 298 299 293 296 297 299 299 300 295
264 265 266 267 268 268 268 268 268 270 270 269 271 273 276 279 279 276 275 275 276 278 280 282 285 287 287 293 295 295 296 296 297 297 296 295 297 296 299 297 296 295 296
265 266 267 267 268 268 268 268 269 270 269 269 271 273 276 280 278 277 276 276 278 279 281 283 284 288 289 292 296 294 297 296 296 296 296 295 293 296 296 294 294 292 294
264 265 266 268 268 268 267 267 268 269 268 268 271 273 276 279 282 279 279 280 281 283 283 284 286 288 291 293 295 295 295 295 294 295 295 295 294 293 294 293 291 289 288
265 266 268 267 268 267 267 267 267 267 266 268 271 273 277 278 279 282 285 285 285 285 286 286 289 290 292 293 295 295 293 291 292 292 293 289 295 293 294 293 290 289 288
265 266 265 265 266 266 266 266 267 265 266 270 271 273 275 277 279 280 282 284 285 285 285 285 286 289 291 293 294 296 292 291 290 290 290 291 292 293 294 294 293 291 289
267 266 265 266 265 265 265 265 265 265 267 270 270 271 273 276 279 279 280 281 282 282 283 284 284 285 287 290 294 293 293 293 290 290 291 290 292 293 293 292 292 291 289
268 268 265 265 264 264 264 263 264 265 266 269 269 270 272 274 278 279 280 279 280 281 281 281 282 283 285 288 291 291 292 291 289 289 290 292 293 293 293 291 291 289 289
267 267 266 265 265 264 264 262 263 263 266 267 268 269 270 271 273 277 279 281 280 280 281 281 281 282 284 284 286 288 288 288 289 289 290 291 291 291 289 288 289 289 289
268 265 264 265 264 263 263 261 261 262 265 267 267 267 269 269 270 273 275 277 281 283 281 282 282 282 282 284 286 286 286 286 287 287 287 286 286 285 285 285 286 287 287
267 265 264 262 262 261 261 260 260 261 262 265 265 266 267 267 269 270 272 278 279 282 285 286 284 284 285 286 286 287 287 288 288 286 285 284 285 284 285 285 285 285 285
Wind_Speed
6 8 9 8 7 7 7 7 8 7 5 2 3 2 3 3 3 3 6 8 8 10 10 8 8 7 5 6 9 9 11 12 16 8 5 4 9 15 13 12 12 13 12
8 7 7 6 7 6 6 6 6 7 6 3 3 3 3 4 5 6 8 9 11 11 11 10 9 9 7 6 9 11 8 8 9 9 9 4 2 4 2 12 12 14 11
9 11 8 6 5 6 7 8 7 7 7 7 6 4 4 4 7 9 8 10 12 13 11 11 9 8 6 6 6 10 11 8 3 7 5 4 4 1 4 2 8 13 11
7 5 8 10 8 8 7 8 10 11 10 7 8 8 8 10 9 8 7 8 10 11 12 13 12 11 8 7 5 8 11 9 6 5 4 3 6 4 3 3 3 5 11
5 8 8 8 9 8 8 10 11 11 12 11 11 10 12 10 9 9 12 12 12 12 13 11 10 12 9 9 8 9 13 11 10 6 7 0 5 2 3 5 3 4 2
7 7 7 9 10 10 9 10 11 13 12 12 12 12 13 12 11 12 11 10 9 9 15 15 13 12 11 10 9 10 14 12 11 7 6 7 6 5 2 3 3 6 3
8 8 10 11 11 13 13 12 13 14 14 14 15 15 16 16 17 15 12 13 10 11 12 12 10 10 11 11 9 10 12 12 9 12 10 10 10 7 3 3 4 5 0
9 10 11 12 13 15 15 14 14 15 15 15 16 15 16 11 12 14 13 12 12 11 13 14 12 12 10 10 10 9 10 13 10 15 12 12 11 14 7 7 3 5 2
11 11 11 10 12 13 15 15 16 17 16 16 15 16 15 16 15 16 15 13 15 13 16 16 14 13 12 12 12 7 11 13 13 12 14 10 8 9 11 12 13 7 4
11 13 13 13 13 15 15 16 17 18 18 18 16 15 16 17 16 16 18 18 16 17 16 17 17 16 13 12 11 10 12 14 11 10 13 11 9 11 12 12 13 11 6
12 13 13 14 14 14 14 16 17 18 18 17 17 18 17 18 17 18 18 18 17 17 18 17 16 16 14 12 11 12 13 17 13 12 14 15 16 11 11 12 12 13 9
10 12 12 13 14 15 16 16 17 17 17 17 18 19 18 18 19 19 19 18 20 17 18 18 18 18 16 15 13 13 14 16 16 15 16 14 12 15 14 12 12 12 14
13 13 14 15 15 16 17 18 19 20 19 17 18 19 19 19 19 19 18 19 19 20 19 19 19 17 16 15 15 12 15 15 17 16 17 16 17 15 12 13 12 9 4
10 12 15 16 17 17 18 18 20 19 19 18 18 19 19 20 19 19 20 20 19 20 21 20 18 19 17 15 15 12 9 15 11 16 16 16 18 19 17 14 14 9 9
15 14 15 17 18 19 20 20 20 20 19 18 18 20 20 20 19 19 20 19 19 19 19 18 19 17 16 12 15 12 12 12 13 14 14 16 17 20 20 13 14 15 10
14 14 16 18 19 20 21 22 22 21 19 19 20 20 19 19 19 19 19 19 18 19 18 18 18 18 12 21 23 17 12 10 14 12 11 12 12 18 23 21 22 19 16
12 13 15 16 18 19 19 21 22 20 20 19 20 20 19 17 15 17 18 18 17 18 18 19 17 18 13 21 22 21 13 12 15 14 13 10 10 16 17 18 21 19 21
10 13 13 17 18 19 20 21 20 20 20 20 21 22 22 16 7 13 15 15 15 17 17 19 18 16 13 21 22 23 15 13 14 15 15 15 14 15 17 16 13 11 12
10 9 9 14 15 17 19 19 20 20 20 22 23 23 21 18 2 10 13 13 14 13 13 15 17 16 12 23 23 21 14 15 13 14 15 16 17 20 25 18 15 12 6
7 8 11 12 13 18 19 18 18 21 21 21 21 20 20 18 14 8 10 10 10 9 10 13 12 12 13 19 25 23 10 11 11 12 13 18 20 27 26 18 18 15 11
10 6 7 8 13 14 16 18 18 21 22 20 20 21 21 19 17 13 11 9 8 8 7 8 5 11 12 15 27 27 13 12 12 11 11 11 24 28 26 21 16 17 14
11 4 7 7 10 13 14 16 19 19 19 20 20 21 21 17 15 17 15 14 11 12 10 9 7 4 5 16 25 26 21 21 14 13 10 13 28 25 23 17 22 24 18
8 5 5 7 6 12 12 15 18 18 18 18 20 20 20 20 19 18 17 13 13 11 9 7 7 8 6 6 21 22 24 22 14 11 14 24 27 27 19 27 28 18 10
6 5 5 8 8 11 12 11 15 17 15 16 17 17 18 19 19 17 15 15 13 10 8 9 9 8 9 8 9 12 15 24 18 24 17 17 17 16 16 16 12 8 8
6 5 6 4 6 8 11 11 14 14 15 15 16 16 15 17 15 15 17 17 20 20 12 13 13 13 12 10 14 12 12 12 19 18 13 12 10 12 10 9 9 8 8
6 5 6 5 6 5 8 12 12 12 12 13 13 13 12 13 13 12 11 27 33 38 35 33 22 16 26 27 29 26 26 26 26 15 14 12 10 11 11 11 9 8 10
Wind_Direction
42 46 49 40 26 18 9 360 340 333 345 353 343 324 296 302 292 271 265 268 265 263 260 260 266 272 257 262 278 264 243 223 188 133 92 51 220 185 192 178 177 175 177
25 16 21 19 18 358 356 341 326 317 312 297 259 242 258 261 267 268 268 273 277 268 261 256 257 260 266 255 263 261 265 271 220 179 148 131 31 337 187 177 175 177 175
14 354 354 360 3 349 332 328 318 308 290 284 284 270 262 268 265 263 264 257 257 262 262 263 254 255 245 241 243 266 248 235 250 60 107 118 165 144 359 109 176 169 177
349 311 339 353 348 328 320 312 309 303 295 288 282 265 260 262 263 266 265 264 261 265 260 256 256 256 254 250 231 250 250 234 223 98 41 103 125 153 173 46 17 174 178
343 345 334 320 307 307 300 302 298 293 291 285 274 268 263 262 265 261 261 252 254 258 261 258 257 252 250 247 232 250 264 234 221 193 139 105 75 23 151 154 158 67 10
322 315 295 294 298 299 295 293 292 288 285 282 279 272 269 266 259 256 259 256 253 248 248 251 249 252 250 242 238 250 253 235 218 177 171 155 136 130 190 116 120 131 22
309 298 301 305 303 300 299 296 293 288 284 278 273 268 264 260 257 256 253 254 249 248 251 248 244 242 245 245 235 243 260 228 195 180 174 146 145 133 191 75 117 103 5
296 295 301 297 298 299 298 296 290 287 285 280 272 268 263 258 256 251 249 249 245 246 245 251 249 249 244 240 235 240 246 231 193 188 171 163 162 140 137 125 172 84 26
300 300 300 300 301 301 298 299 296 290 283 278 274 267 264 257 255 254 251 246 244 240 242 244 247 244 250 248 245 243 246 229 193 193 178 170 161 145 147 156 164 163 148
315 319 323 314 310 308 303 297 291 288 285 283 276 270 265 260 255 250 247 245 244 241 240 237 239 242 244 246 245 245 257 229 195 178 179 167 159 167 149 164 164 156 162
317 316 308 311 305 297 295 292 288 286 285 282 276 271 266 260 254 248 245 243 244 238 235 236 236 238 234 238 241 237 242 236 206 162 177 169 167 168 163 158 184 160 162
300 298 304 308 304 302 301 293 293 296 291 284 277 271 267 259 250 246 242 241 239 236 234 234 233 233 235 234 235 233 231 231 183 179 172 171 165 163 180 163 183 177 165
313 317 322 319 312 310 304 301 301 301 298 290 281 272 264 255 246 241 237 235 235 235 232 229 229 227 229 232 231 239 224 228 191 174 175 170 171 164 173 172 173 167 162
296 317 327 320 316 313 305 306 304 302 297 292 283 277 269 258 247 237 228 228 226 227 228 228 225 223 225 229 227 222 212 203 194 174 177 171 176 166 178 176 170 157 145
325 331 320 319 316 315 315 315 311 306 304 297 292 282 272 258 242 231 225 220 219 221 221 220 226 223 221 221 219 211 208 199 191 179 172 180 180 175 175 166 168 160 148
319 322 319 319 320 320 318 317 315 313 311 308 299 292 283 262 234 217 211 210 209 215 216 218 214 219 219 217 217 200 198 205 178 180 176 178 166 167 169 173 165 171 159
306 312 317 318 318 319 318 315 318 318 322 318 317 317 314 297 205 193 193 198 202 207 211 215 214 210 220 214 208 189 187 178 179 184 174 163 170 169 169 165 161 165 174
308 319 321 318 321 320 326 325 326 330 330 329 333 335 339 344 125 164 179 186 197 202 206 210 209 208 221 216 201 185 182 182 183 179 175 171 160 168 158 152 155 155 171
285 284 295 307 316 327 329 331 332 336 340 341 341 343 350 353 61 171 178 184 190 192 198 210 206 205 220 210 195 179 181 190 178 176 172 170 166 164 156 152 147 138 119
277 296 319 314 331 335 333 337 343 340 347 340 343 347 359 5 11 34 178 172 179 190 195 198 201 198 213 194 191 182 173 171 171 164 169 168 168 163 158 152 150 148 153
293 303 318 322 324 334 339 345 349 349 334 342 349 358 0 10 16 29 44 84 107 109 119 116 131 189 188 190 181 178 169 167 164 157 154 160 156 159 157 153 161 153 138
308 354 331 337 319 340 349 349 354 338 337 347 356 360 4 7 13 31 37 47 58 72 72 89 86 67 138 173 174 166 164 166 154 160 157 147 147 148 142 140 131 128 123
299 322 337 332 327 342 357 349 342 341 341 354 359 359 7 13 17 25 38 36 40 54 62 67 86 84 79 116 146 154 155 154 138 141 143 147 148 136 135 134 136 123 129
301 309 356 336 3 343 350 349 341 340 347 1 5 1 10 8 14 22 25 39 44 42 51 57 70 73 66 88 119 124 123 118 113 113 116 121 121 121 118 118 118 122 135
300 307 327 344 355 343 346 352 346 347 356 4 6 11 8 10 8 14 25 27 33 38 45 52 58 63 70 69 85 104 110 114 116 114 106 104 110 110 111 106 108 111 117
298 297 312 333 343 25 348 348 350 352 4 13 5 7 9 7 9 11 17 32 34 34 42 48 53 53 53 64 69 74 85 93 101 95 96 99 102 106 113 111 112 111 113